Overview Statistics Trail Chart Weather Telemetry Raw packets
 

This is the latest recevied weather packets stored in our database for station/object MEGLR. If no packets are shown the sender has not sent any weather packets the latest 10 day(s).

<< 14 15 16 17 18 19 20 >>
Time Temp. Humidity Pressure Rain* Wind** Luminosity Snow
1788462603 13.33° C 82% 0 hPa - - - -
1788462004 13.33° C 80% 0 hPa - - - -
1788461402 13.89° C 85% 0 hPa - - - -
1788460803 13.89° C 88% 0 hPa - - - -
1788460203 13.33° C 89% 0 hPa - - - -
1788459603 13.33° C 91% 0 hPa - - - -
1788459003 12.78° C 91% 0 hPa - - - -
1788458404 12.78° C 90% 0 hPa - - - -
1788457803 12.78° C 88% 0 hPa - - - -
1788457202 12.78° C 87% 0 hPa - - - -
1788456603 12.22° C 87% 0 hPa - - - -
1788456002 11.67° C 92% 0 hPa - - - -
1788455403 11.67° C 91% 0 hPa - - - -
1788454803 11.67° C 96% 0 hPa - - - -
1788454203 11.67° C 97% 0 hPa - - - -
1788453603 11.67° C 92% 0 hPa - - - -
1788453003 11.67° C 93% 0 hPa - - - -
1788452402 11.67° C 91% 0 hPa - - - -
1788451803 12.22° C 87% 0 hPa - - - -
1788451203 11.67° C 95% 0 hPa - - - -
1788450603 11.67° C 98% 0 hPa - - - -
1788450003 11.67° C 95% 0 hPa - - - -
1788449403 11.67° C 97% 0 hPa - - - -
1788448803 11.67° C 97% 0 hPa - - - -
1788448202 11.67° C 94% 0 hPa - - - -

* Rain since midnight (hover to see other rain measurements)
** Current wind speed in m/s (hover to see current wind gust speed)